Starlink 11306

operational
NORAD ID: 61254 Int'l Des: 2024-175 Owner: SPXS Country: US Constellation: starlink
LEOCIRCULAR

About Starlink 11306

Description loading...

Live Position

Loading 3D Globe...

Upcoming Passes

Altitude History

Altitude vs Time

uPlot chart will show altitude changes over time

Two-Line Element Set

1 61254U 24175M 25305.32615858 -.00001009 00000-0 -34635-5 0 9998
2 61254 53.1589 329.1863 0001419 78.6340 281.4838 15.69705382 64400
Epoch: Nov 1, 2025 • Age: 23 hours

Current Status

Altitude 374.5 km
Velocity 7.68 km/s
Sub-Earth Point -42.05°S, 142.89°E
Launch Date Sep 25, 2024
Age 1.1 years
Type internet

Technical Details

Classification Payload
Mass 960.00 kg
Dry Mass 910.00 kg
Total Mass 960.00 kg
Length 0.30 m
Diameter 4.10 m
Span 29.00 m
Shape Box + pan
Manufacturer SPXS
Bus Type Starlink V2MD
Phase Status In Orbit
Owner/State SPXS/US

Large Constellations

Loading constellations...